Regional Weather Roundup
Issued by NWS

Home | Current Version | Previous Version | Text Only | Print | Product List | Glossary Off
Versions: 1 2 3 4 5 6 7 8 9 10 11 12 13 14 15 16 17 18 19 20 21 22 23 24 25 26 27 28 29 30 31 32 33 34 35 36 37 38 39 40 41 42 43 44 45 46 47 48 49 50

000
ASUS43 KLMK 260510
RWRKY
KENTUCKY REGIONAL WEATHER ROUNDUP
NATIONAL WEATHER SERVICE LOUISVILLE KY
100 AM EDT SUN APR 26 2015

NOTE "FAIR" INDICATES FEW OR NO CLOUDS BELOW 12,000 FEET
WITH NO SIGNIFICANT WEATHER AND/OR OBSTRUCTIONS TO VISIBILITY.

KYZ001>023-026-027-061>063-070>075-260600-
WESTERN AND SOUTH CENTRAL KENTUCKY

CITY           SKY/WX    TMP DP  RH WIND       PRES   REMARKS
PADUCAH        CLOUDY    62  58  86 N7        29.63R
HENDERSON      CLOUDY    54  48  82 N13       29.64R
OWENSBORO      CLOUDY    54  53  96 N9        29.64R FOG
HOPKINSVILLE   CLOUDY    60  60  98 SW5       29.60F
BOWLING GREEN  MOCLDY    60  58  92 W7        29.60R
GLASGOW        FOG       59  59 100 NW6       29.60R VSB 1/2
$$

KYZ024-025-028>034-038-045-046-053-260600-
NORTH CENTRAL KENTUCKY

CITY           SKY/WX    TMP DP  RH WIND       PRES   REMARKS
LOUISVILLE/SDF DRIZZLE   48  45  89 NE12      29.66R
LOUISVILLE/LOU LGT RAIN  47  44  90 NE8       29.66R
FORT KNOX      CLOUDY    47  46  94 N9        29.63R
$$

KYZ035>037-039>044-047>052-055>060-089>105-260600-
NORTHEAST KENTUCKY

CITY           SKY/WX    TMP DP  RH WIND       PRES   REMARKS
LEXINGTON      CLOUDY    45  44  97 NE12      29.62R
COVINGTON      LGT RAIN  45  41  86 NE15      29.67R
FRANKFORT      CLOUDY    45  42  89 N7        29.63R
$$

KYZ054-064>069-076>088-106>120-260600-
SOUTHEAST KENTUCKY

CITY           SKY/WX    TMP DP  RH WIND       PRES   REMARKS
JACKSON        CLOUDY    49  47  93 VRB5      29.56F FOG
LONDON         CLOUDY    55  51  86 W3        29.56S
SOMERSET       PTCLDY    54  54 100 CALM      29.57S
MIDDLESBORO    CLOUDY    57  57 100 NE3       29.56R
MONTICELLO     PTCLDY    59  59 100 S3        29.59S
$$




USA.gov is the U.S. government's official web portal to all federal, state and local government web resources and services.